GLOBALSTAR M090

Last updated on Mon Sep 21 2026 00:03:12 GMT+0000 (Coordinated Universal Time)

1 38044U 11080E 26263.16833157 -.00000111 00000+0 -38581-4 0 9995 2 38044 52.0135 39.3713 0000800 121.4887 49.6077 12.62268109681704
UTC large
Height (km)
Speed (km/s)
/
Latitude / Longitude
Inclination (degrees)
Orbital Period (minutes)
Azimuth
Elevation
Range (km)
Doppler Factor

Next 0 passes for location: London (51.5072 / 0.1276)

No passes found over London.
GLOBALSTAR M090